[[{"header":{"parameterUnit":"m.s-1","parameterCategory":1,"la1":30.2991,"la2":30.254,"lo1":-89.0895,"lo2":-89.0444,"dy":0.0017,"dx":0.0017,"nx":28,"ny":28,"refTime":"2024-03-26T09:00:00:Z","depth":0,"parameterNumber":2,"parameterNumberName":"U-component_of_WINDS"},"data":[0,0,0,0,0,0,0,0,0,0,0,0,0,0,0,0,0,0,0,0,0,0,0,0,0,0,0,0,0,0,0,0,0,0,0,0,0,0,0,0,0,0,0,0,0,0,0,0,0,0,0,0,0,0,0,0,0,0,1.3092,1.3092,0,1.3079,1.3079,1.3079,1.3037,1.3036,1.3035,1.3034,1.3021,1.3021,1.3022,0,0,0,0,0,0,0,0,0,0,0,0,0,1.3081,1.3081,1.3092,1.3092,1.3092,1.3079,1.3079,1.3079,1.3037,1.3036,1.3035,1.3033,1.302,1.3021,1.3022,0,0,0,0,0,0,0,0,0,0,0,0,0,1.3079,1.3081,1.3092,1.3069,1.3067,1.3079,1.3079,1.3079,1.3037,1.3036,1.3034,1.3033,1.302,1.3021,1.3022,1.3055,0,0,1.3024,1.3024,0,0,0,0,0,0,0,0,1.3079,1.3079,1.3073,1.3071,1.3068,1.3058,1.307,1.3071,1.3037,1.3048,1.3034,1.3032,1.3034,1.3034,1.3034,1.3054,1.3054,1.3024,1.3025,1.3025,1.3025,0,0,0,0,0,0,0,1.3079,1.3079,1.3087,1.3073,1.307,1.306,1.3058,1.307,1.3049,1.3047,1.3044,1.3043,1.3033,1.3034,1.3034,1.3053,1.3024,1.3025,1.3025,1.3026,1.3101,1.3102,0,0,0,0,0,0,1.3082,1.308,1.3087,1.3086,1.307,1.3061,1.3059,1.3063,1.3049,1.3046,1.3045,1.3041,1.3033,1.3033,1.3033,1.3072,1.3025,1.3026,1.3026,1.3099,1.3101,1.3103,0,0,0,0,0,0,1.3082,1.3083,1.3088,1.3082,1.3082,1.3063,1.3067,1.3063,1.3064,1.3047,1.3043,1.3049,1.3032,1.3032,1.305,1.3071,1.3026,1.3027,1.3098,1.31,1.3102,1.3149,0,0,0,0,0,0,1.3082,1.3084,1.3096,1.3083,1.3083,1.3105,1.3069,1.3064,1.3066,1.3062,1.3051,1.3047,1.3031,1.3049,1.3051,1.3071,1.3027,1.3096,1.3099,1.3101,1.3145,1.3152,1.3158,0,0,0,0,0,1.3082,1.3109,1.3097,1.3098,1.3097,1.3106,1.3106,1.3086,1.3068,1.308,1.3069,1.3048,1.3068,1.3051,1.3053,1.3073,1.3094,1.3098,1.3101,1.3142,1.3151,1.3158,0,0,0,0,0,0,1.3124,1.3107,1.3093,1.3117,1.3113,1.3099,1.3114,1.3096,1.3098,1.3094,1.3069,1.3067,1.3089,1.3083,1.3064,1.3105,1.3078,1.3082,1.3109,1.3117,1.3123,1.3124,1.3028,0,0,0,0,0,1.3137,1.3145,1.3129,1.3152,1.3151,1.3133,1.3136,1.3121,1.3117,1.3115,1.3105,1.3102,1.3107,1.3112,1.3116,1.3144,1.3142,1.3159,1.3166,1.3171,1.3175,1.3191,1.3199,1.3114,1.3114,1.3114,0,0,1.3162,1.3153,1.316,1.3161,1.3156,1.3166,1.3132,1.3143,1.315,1.3117,1.3133,1.3126,1.3121,1.3144,1.3154,1.314,1.3198,1.3176,1.318,1.3181,1.3195,1.3203,1.321,1.3117,1.3116,1.3116,0,0,1.3213,1.3207,1.3226,1.3222,1.3216,1.3204,1.3209,1.3198,1.3192,1.3208,1.3183,1.3192,1.3202,1.3199,1.3199,1.3251,1.3231,1.3253,1.3287,1.3302,1.3309,1.3315,1.3334,1.3341,1.3256,1.3256,1.3257,0,1.3245,1.3259,1.3238,1.3251,1.3252,1.3223,1.3242,1.324,1.3235,1.3237,1.3221,1.3234,1.3228,1.3251,1.3264,1.3264,1.3269,1.3254,1.331,1.3315,1.332,1.3338,1.3346,1.3259,1.3259,1.3259,1.3258,0,1.3299,1.3309,1.3324,1.3322,1.3325,1.3341,1.3323,1.3328,1.3314,1.3304,1.3321,1.3313,1.3316,1.332,1.3306,1.3342,1.3333,1.3314,1.3286,1.3332,1.3348,1.3355,1.3263,1.3262,1.3261,1.3261,0,0,1.3375,1.3362,1.3368,1.3367,1.3359,1.3366,1.3381,1.3384,1.339,1.3388,1.3401,1.341,1.3393,1.3393,1.3378,1.3392,1.3434,1.3371,1.337,1.3383,1.3474,1.3489,1.3497,1.3422,1.3423,1.3424,1.3475,0,1.3424,1.345,1.3432,1.346,1.347,1.3443,1.3456,1.3453,1.3444,1.3451,1.3441,1.3448,1.3424,1.3424,1.3437,1.3427,1.3452,1.3423,1.3433,1.3434,1.3436,1.3506,1.3521,1.357,1.3481,1.3482,1.3483,0,1.3485,1.3486,1.3516,1.3507,1.351,1.3523,1.3524,1.3531,1.3527,1.352,1.3521,1.3503,1.3518,1.349,1.351,1.3491,1.3494,1.349,1.3491,1.3492,1.3461,1.3508,1.3585,1.3592,1.3493,1.3492,1.3491,0,1.3539,1.3548,1.3567,1.3567,1.3557,1.3566,1.3563,1.3557,1.3561,1.3562,1.3564,1.3567,1.3569,1.3572,1.3556,1.3537,1.3579,1.355,1.3574,1.3574,1.3584,1.3583,1.3662,1.3585,1.3585,1.3585,1.3585,0,1.3595,1.3614,1.3592,1.3604,1.3625,1.3604,1.3626,1.3619,1.3615,1.3625,1.3602,1.3612,1.359,1.3598,1.3585,1.3605,1.3605,1.36,1.3597,1.3602,1.3603,1.3604,1.3601,1.3587,1.3587,1.3586,1.3586,0,1.3659,1.3644,1.3664,1.3653,1.365,1.3667,1.3657,1.3668,1.3658,1.3672,1.3674,1.3658,1.3666,1.3651,1.3657,1.3648,1.3676,1.3666,1.3677,1.3675,1.37,1.3698,1.3782,1.3792,1.3709,1.371,1.3711,0,1.3696,1.371,1.3702,1.3707,1.3705,1.3714,1.3717,1.3698,1.3703,1.37,1.3711,1.3718,1.3722,1.3737,1.3726,1.3731,1.3722,1.3751,1.3723,1.3728,1.3723,1.3723,1.3724,1.3757,1.3758,1.3759,1.376,0,1.3764,1.3756,1.3762,1.3766,1.3771,1.3773,1.3773,1.3779,1.3759,1.3766,1.3774,1.3778,1.3785,1.3792,1.3794,1.379,1.3772,1.3769,1.3775,1.3781,1.3787,1.3785,1.3694,1.3767,1.3766,1.3766,1.3765,1.3765,1.3816,1.3828,1.3824,1.3831,1.383,1.3831,1.3841,1.3833,1.384,1.3844,1.3832,1.3844,1.384,1.3842,1.384,1.3849,1.3836,1.3845,1.3847,1.3849,1.3854,1.3785,1.385,1.3849,1.3849,1.3849,1.3849,0,1.3883,1.3879,1.3887,1.3888,1.3895,1.3877,1.3877,1.3884,1.3894,1.3893,1.3898,1.3908,1.3915,1.3905,1.3911,1.392,1.3912,1.3922,1.3921,1.3921,1.3865,1.3859,1.3929,1.3929,1.3929,1.3929,1.3929,1.3929,1.3919,1.3938,1.3931,1.395,1.3946,1.3957,1.3959,1.396,1.3959,1.3971,1.3977,1.3971,1.3966,1.3972,1.3977,1.3974,1.3978,1.3991,1.3985,1.3933,1.3925,1.3917,1.3912,1.3992,1.3992,1.4041,1.4041,1.4042]},{"header":{"parameterUnit":"m.s-1","parameterCategory":1,"la1":30.2991,"la2":30.254,"lo1":-89.0895,"lo2":-89.0444,"dy":0.0017,"dx":0.0017,"nx":28,"ny":28,"refTime":"2024-03-26T09:00:00:Z","depth":0,"parameterNumber":3,"parameterNumberName":"V-component_of_WINDS"},"data":[0,0,0,0,0,0,0,0,0,0,0,0,0,0,0,0,0,0,0,0,0,0,0,0,0,0,0,0,0,0,0,0,0,0,0,0,0,0,0,0,0,0,0,0,0,0,0,0,0,0,0,0,0,0,0,0,0,0,-3.3645,-3.3647,0,-3.3829,-3.3831,-3.3833,-3.3846,-3.3844,-3.3842,-3.384,-3.4029,-3.4035,-3.4042,0,0,0,0,0,0,0,0,0,0,0,0,0,-3.3305,-3.3311,-3.3644,-3.3647,-3.3649,-3.3829,-3.3831,-3.3834,-3.3847,-3.3844,-3.3842,-3.384,-3.4026,-3.4035,-3.4043,0,0,0,0,0,0,0,0,0,0,0,0,0,-3.3467,-3.3313,-3.3644,-3.3677,-3.3682,-3.3828,-3.3831,-3.3834,-3.3847,-3.3844,-3.3841,-3.3838,-3.4024,-3.4034,-3.4044,-3.4169,0,0,-3.4076,-3.408,0,0,0,0,0,0,0,0,-3.3458,-3.3479,-3.367,-3.3675,-3.3681,-3.3812,-3.378,-3.3947,-3.3848,-3.3785,-3.384,-3.3837,-3.3959,-3.3974,-3.4016,-3.4178,-3.4186,-3.4077,-3.4083,-3.4087,-3.409,0,0,0,0,0,0,0,-3.3446,-3.3472,-3.3717,-3.3673,-3.368,-3.3683,-3.3703,-3.3812,-3.3887,-3.379,-3.3791,-3.3813,-3.3961,-3.4006,-3.402,-3.4189,-3.4076,-3.4086,-3.4092,-3.4096,-3.4466,-3.447,0,0,0,0,0,0,-3.3429,-3.3462,-3.3712,-3.3723,-3.356,-3.3692,-3.3714,-3.3773,-3.3885,-3.39,-3.3815,-3.3813,-3.3989,-3.4008,-3.4027,-3.4183,-3.4087,-3.4097,-3.4103,-3.4463,-3.4467,-3.4471,0,0,0,0,0,0,-3.3421,-3.3451,-3.3704,-3.3593,-3.3626,-3.3701,-3.3767,-3.3778,-3.3822,-3.3905,-3.3918,-3.3847,-3.3988,-3.4012,-3.4134,-3.419,-3.4102,-3.4111,-3.4458,-3.4464,-3.4469,-3.4495,0,0,0,0,0,0,-3.3412,-3.3448,-3.3496,-3.3594,-3.3631,-3.3808,-3.377,-3.3784,-3.384,-3.3839,-3.3938,-3.3952,-3.3987,-3.4119,-3.4145,-3.4202,-3.4119,-3.4454,-3.4461,-3.4467,-3.4489,-3.45,-3.451,0,0,0,0,0,-3.3399,-3.3495,-3.3499,-3.3529,-3.3693,-3.3811,-3.3833,-3.3872,-3.3845,-3.3894,-3.3947,-3.3948,-3.4179,-3.4131,-3.4161,-3.4222,-3.4451,-3.4459,-3.4467,-3.4485,-3.4498,-3.451,0,0,0,0,0,0,-3.3401,-3.3509,-3.3513,-3.3644,-3.3719,-3.3813,-3.3877,-3.3885,-3.3969,-3.3964,-3.4009,-3.4031,-3.4153,-3.4199,-3.4144,-3.4351,-3.4312,-3.4326,-3.4316,-3.4329,-3.4339,-3.4326,-3.4128,0,0,0,0,0,-3.3417,-3.3504,-3.3593,-3.37,-3.3737,-3.3801,-3.3853,-3.3878,-3.3957,-3.3988,-3.405,-3.4127,-3.4217,-3.4276,-3.4363,-3.4496,-3.4519,-3.4553,-3.4563,-3.4571,-3.4583,-3.466,-3.4677,-3.4498,-3.4498,-3.4497,0,0,-3.345,-3.3519,-3.3571,-3.3702,-3.3763,-3.3853,-3.3827,-3.3922,-3.399,-3.4003,-3.4123,-3.4171,-3.426,-3.4389,-3.4448,-3.4431,-3.4638,-3.4582,-3.4587,-3.4595,-3.467,-3.4687,-3.4702,-3.4503,-3.4502,-3.4501,0,0,-3.3557,-3.3617,-3.3714,-3.3776,-3.3868,-3.391,-3.3933,-3.4028,-3.4061,-3.4182,-3.4194,-3.4275,-3.4429,-3.4492,-3.4545,-3.4678,-3.4683,-3.4705,-3.4759,-3.4833,-3.4847,-3.486,-3.4909,-3.4926,-3.4717,-3.4717,-3.4717,0,-3.3586,-3.3722,-3.3762,-3.3859,-3.3916,-3.3933,-3.4032,-3.409,-3.4206,-3.4246,-3.4225,-3.442,-3.4481,-3.4626,-3.4659,-3.47,-3.4729,-3.4694,-3.4842,-3.4855,-3.4867,-3.4915,-3.4933,-3.4719,-3.4719,-3.4718,-3.4718,0,-3.3754,-3.3849,-3.3915,-3.4029,-3.4094,-3.4191,-3.4247,-3.4308,-3.4327,-3.4371,-3.4495,-3.4569,-3.4673,-3.4709,-3.4727,-3.4858,-3.4845,-3.4832,-3.4794,-3.4886,-3.4932,-3.495,-3.4722,-3.4721,-3.4721,-3.472,0,0,-3.3866,-3.4002,-3.4026,-3.4079,-3.4183,-3.4257,-3.4356,-3.4458,-3.451,-3.459,-3.4675,-3.4806,-3.4796,-3.4855,-3.4882,-3.4946,-3.505,-3.4927,-3.4929,-3.4948,-3.52,-3.521,-3.523,-3.5053,-3.5057,-3.506,-3.5194,0,-3.3986,-3.4162,-3.4202,-3.4354,-3.4442,-3.446,-3.4546,-3.462,-3.4665,-3.4747,-3.4796,-3.4889,-3.4868,-3.4904,-3.4969,-3.5023,-3.5101,-3.5014,-3.5134,-3.5138,-3.5113,-3.5254,-3.5264,-3.5387,-3.5211,-3.5214,-3.5217,0,-3.4149,-3.4234,-3.4394,-3.449,-3.4528,-3.4605,-3.4703,-3.4781,-3.4866,-3.4894,-3.4961,-3.4982,-3.5086,-3.5043,-3.5188,-3.5128,-3.5179,-3.5214,-3.522,-3.5233,-3.5183,-3.5273,-3.5426,-3.5446,-3.5245,-3.5243,-3.5241,0,-3.4217,-3.4371,-3.4488,-3.4532,-3.4646,-3.47,-3.4749,-3.4831,-3.4891,-3.4976,-3.5016,-3.5112,-3.5165,-3.524,-3.5286,-3.525,-3.5429,-3.5389,-3.5456,-3.5455,-3.5494,-3.5491,-3.5659,-3.5524,-3.5524,-3.5524,-3.5523,0,-3.4347,-3.4445,-3.4521,-3.4593,-3.4704,-3.4749,-3.4858,-3.4908,-3.4981,-3.5064,-3.5084,-3.5162,-3.5217,-3.5303,-3.5339,-3.5455,-3.5479,-3.5505,-3.5514,-3.5504,-3.5501,-3.554,-3.5533,-3.5528,-3.5527,-3.5526,-3.5526,0,-3.4442,-3.4496,-3.4625,-3.4722,-3.4749,-3.4827,-3.4911,-3.4982,-3.5027,-3.5132,-3.5159,-3.5231,-3.5333,-3.5386,-3.5512,-3.5537,-3.5669,-3.5671,-3.564,-3.5644,-3.571,-3.5703,-3.5909,-3.594,-3.5783,-3.5784,-3.5785,0,-3.4521,-3.4598,-3.4704,-3.4761,-3.4812,-3.4904,-3.4965,-3.5014,-3.5077,-3.5181,-3.524,-3.5343,-3.5428,-3.559,-3.5653,-3.5751,-3.5758,-3.5823,-3.5773,-3.5761,-3.5761,-3.5757,-3.5766,-3.5833,-3.5834,-3.5835,-3.5836,0,-3.4658,-3.4682,-3.477,-3.4869,-3.4942,-3.5021,-3.51,-3.5145,-3.5207,-3.5277,-3.5382,-3.5448,-3.5579,-3.5681,-3.5784,-3.5836,-3.5848,-3.5852,-3.5873,-3.5865,-3.5844,-3.5858,-3.5666,-3.5847,-3.5846,-3.5845,-3.5844,-3.5844,-3.475,-3.4819,-3.4906,-3.5004,-3.5068,-3.5142,-3.5214,-3.5269,-3.5358,-3.5468,-3.5491,-3.5603,-3.5688,-3.5828,-3.5883,-3.5971,-3.5958,-3.5988,-3.5996,-3.6003,-3.6007,-3.5829,-3.599,-3.5989,-3.5989,-3.5989,-3.5989,0,-3.4889,-3.4946,-3.5036,-3.5146,-3.5224,-3.5228,-3.5316,-3.538,-3.5478,-3.5557,-3.5641,-3.5762,-3.5863,-3.5935,-3.6038,-3.6095,-3.6103,-3.612,-3.6117,-3.613,-3.6012,-3.5984,-3.6112,-3.6112,-3.6112,-3.6112,-3.6112,-3.6112,-3.4971,-3.509,-3.5124,-3.5276,-3.5332,-3.5442,-3.5492,-3.5561,-3.5624,-3.5759,-3.5843,-3.589,-3.5967,-3.6075,-3.6168,-3.6187,-3.6225,-3.6242,-3.6261,-3.615,-3.6137,-3.6125,-3.6099,-3.6249,-3.625,-3.6372,-3.6373,-3.6374]}]]